sat.trackr.live / text

‹ back to catalog

STARLINK-1133

NORAD 45064 · 2020-006W

PAYLOAD ACTIVE UNKNOWN

§ Identity

Operator
Country
US
Launch date
2020-01-29
Launch site
AFETR
Launch vehicle
Mass (kg)
RCS (m²)

Purposes: comms

External: N2YO · Heavens-Above · Gunter

§ Orbital elements

Epoch: 2026-05-25T00:39:52.066080Z

Period
93.89 min
Inclination
53.1554°
Eccentricity
0.0003137
Mean motion
15.33715076 rev/d
Perigee alt
462.6 km
Apogee alt
466.9 km
Semi-major
6,842.9 km
B*
1.2230e-3
RAAN
262.6055°
Arg perigee
324.2584°
Mean anomaly
35.8208°
Rev number
34,857

§ Raw data

STARLINK-11331 45064U 20006W   26145.02768595  .00040281  00000+0  12230-2 0  99912 45064  53.1554 262.6055 0003137 324.2584  35.8208 15.33715076348573

JSON: /api/v1/satellites/45064 · /tle

For live sub-satellite position, see the globe view (requires WebGL).

§ Visibility from observer

Set your observer location to see the next 7 days of passes ≥ 10°. The values pass through the URL so the page stays shareable.

No JS? Fill the form by hand. The geolocation button needs JavaScript.